Lexington Weather

Lexington, Massachusetts, USA

77°F
8/3/2020 7:34am 
  • Lexington Conditions: Clear
  • Temperature: 76.8°F / 24.9°CWarmer 0.2°F than last hour.
  • Dew Point: 73.4°FDecreased 2.0°Fsince last hour.
  • Relative Humidity: 89%Decreased 7.0% since last hour.
  • Wind: Wind from SW SW 2 mph, 10-min avg: 3 mph, gust: 8 mph
  • Barometer: 29.84 in Steady
  • Visibility: 10 miles
  • Rain Today: 0.00 in
  •   

Regional Weather Roundup
for Boston / Norton, MA

        
000
ASUS41 KBOX 310704
RWRBOX

REGIONAL WEATHER ROUNDUP
NATIONAL WEATHER SERVICE BOSTON/NORTON MA
300 AM EDT FRI JUL 31 2020

NOTE:  "FAIR" INDICATES FEW OR NO CLOUDS BELOW 12,000 FEET WITH NO 
SIGNIFICANT WEATHER AND/OR OBSTRUCTIONS TO VISIBILITY.

MAZALL-310800-
EASTERN MASSACHUSETTS
  
CITY           SKY/WX    TMP DP  RH WIND       PRES   REMARKS
BOSTON         CLOUDY    75  60  59 NW6       29.79F                  
BEVERLY        CLOUDY    69  66  90 NW6       29.79S                  
LAWRENCE       MOCLDY    70  61  73 W3        29.82S                  
BEDFORD        CLOUDY    70  65  84 CALM      29.79F                  
BLUE HILL      NOT AVBL                                               
NORWOOD        CLOUDY    70  65  84 CALM      29.80F                  
MARSHFIELD     CLOUDY    73  70  88 W3        29.79F                  
PLYMOUTH       CLOUDY    74  71  91 CALM      29.80F                  
TAUNTON        MOCLDY    71  69  93 CALM      29.80F FOG              
NEW BEDFORD    MOCLDY    71  70  96 CALM      29.79F FOG              
$$

MAZALL-310800-
CAPE COD AND THE ISLANDS
  
CITY           SKY/WX    TMP DP  RH WIND       PRES   REMARKS
FALMOUTH       CLOUDY    73  73 100 SW6       29.80  FOG              
HYANNIS        CLOUDY    76  74  93 W6        29.79F                  
CHATHAM        CLOUDY    77  75  93 SW3       29.81F                  
PROVINCETOWN   CLOUDY    72  70  93 SW6       29.79F                  
NANTUCKET      FOG       74  73  97 SW8       29.80F VSB 1            
MARTHAS VNYRD  CLOUDY    77  76  96 SW3       29.81S FOG              
$$
 
MAZALL-310800-
CENTRAL AND WESTERN MASSACHUSETTS
  
CITY           SKY/WX    TMP DP  RH WIND       PRES   REMARKS
WORCESTER      MOCLDY    70  62  76 W6        29.84F                  
FITCHBURG      MOCLDY    68  63  84 N3        29.82F                  
ORANGE         MOCLDY    66  65  96 CALM      29.84F                  
SPRINGFIELD    CLOUDY    67  67  97 NE5       29.81S                  
WESTFIELD      CLOUDY    68  66  93 N3        29.81F                  
NORTH ADAMS    MOCLDY    62  60  93 NE3       29.85S FOG              
PITTSFIELD     MOCLDY    63  60  90 CALM      29.85S                  
$$
 
RIZALL-310800-
RHODE ISLAND
  
CITY           SKY/WX    TMP DP  RH WIND       PRES   REMARKS
PROVIDENCE     CLOUDY    76  68  76 W3        29.81F                  
NEWPORT        MOCLDY    73  70  90 CALM      29.81S FOG              
BLOCK ISLAND   FOG       75  74  96 W7        29.82S VSB 3/4          
SMITHFIELD     CLOUDY    68  66  93 CALM      29.83S                  
WESTERLY       MOCLDY    73  69  87 CALM      29.81F                  
$$
 
CTZALL-310800-
CONNECTICUT
  
CITY           SKY/WX    TMP DP  RH WIND       PRES   REMARKS
BRADLEY INTL   CLOUDY    72  64  76 SE3       29.81S                  
HARTFORD       CLOUDY    74  69  85 CALM      29.81F                  
BRIDGEPORT     TSTM      72  69  90 E5        29.84S                  
DANBURY        LGT RAIN  73  67  81 CALM      29.86R                  
GROTON         MOCLDY    73  71  93 NW3       29.80F                  
NEW HAVEN      TSTM      73  68  84 NE3       29.85R                  
CHESTER        NOT AVBL                                               
MERIDEN        MOCLDY    73  66  78 S3        29.83R                  
WILLIMANTIC    MOCLDY    70  67  90 CALM      29.82F                  
OXFORD         CLOUDY    70  66  87 S3        29.87R                  
$$

MEZ002-015-021-024-NHZ003-005-008-011-012-014-VTZ005-008-310800-
NORTHERN NEW ENGLAND
  
CITY           SKY/WX    TMP DP  RH WIND       PRES   REMARKS
PORTLAND ME    CLEAR     68  63  84 W5        29.79F                  
BANGOR ME      CLEAR     63  61  93 CALM      29.78S                  
CONCORD NH     PTCLDY    63  59  87 NW5       29.82F                  
MANCHESTER NH  MOCLDY    71  59  65 NW3       29.79F                  
NASHUA NH      MOCLDY    68  64  87 W3        29.81S                  
PORTSMOUTH NH  MOCLDY    66  60  81 W6        29.78S                  
JAFFREY NH     PTCLDY    62  59  90 CALM      29.85F                  
KEENE NH       PTCLDY    62  61  96 CALM      29.84F                  
BURLINGTON VT  PTCLDY    64  60  87 CALM      29.84F                  
MT. WASHINGTON NOT AVBL                                               
$$

NYZ052-076-310800-
EASTERN NEW YORK
  
CITY           SKY/WX    TMP DP  RH WIND       PRES   REMARKS
ALBANY         MOCLDY    62  57  83 S3        29.84F                  
NEW YORK CITY  RAIN      73  68  84 NE13      29.81F                  
$$
 
ANZALL-310800-
MARINE OBSERVATIONS
  
STATION/POSITION TIME  TEMP    WIND        PRES    VSBY  WAVE
                       AIR SEA DIR/SP/G                  HT/PER
                 (UTC) (F)     (DEG/KT/KT) (MB)    (MI)  (FT/S)
BOSTON BUOY      0550   74 72  270/  6/  8 1007.8          1/ 9
BUZZARDS BAY     0600          260/ 13/ 13 1010.1F
NANTUCKET SOUND  0640      76  250/ 10/ 12 1008.3F
MASS BAY-STELLWA 0604   70     330/  4/  6 1006.6F  1 7/8  1/ 6
ISLE OF SHOALS   0600   71     300/  5/  5 1008.4F
S OF BLOCK IS    0626      77                N/A           3/ 5
$$

......................KEY.........................
  SKY/WX - SKY CONDITION/PRESENT WEATHER
  TMP    - TEMPERATURE IN FAHRENHEIT
  DWPT   - DEWPOINT IN FAHRENHEIT
  RH     - RELATIVE HUMIDITY IN PERCENT
  WIND   - DIRECTION AND SPEED IN MPH
  PRES   - MEAN SEA LEVEL PRESSURE IN INCHES OF HG
  WCI    - WIND CHILL INDEX
  VSB    - VISIBILITY IN MILES
  HX     - HEAT INDEX
  TC     - TEMPERATURE IN CELSIUS
  VRB    - VARIABLE WIND DIRECTION
  N/A    - NOT AVAILABLE
  
      

Other recent Regional Weather Roundups

Mon Aug 3, 7:04am

Mon Aug 3, 6:04am

Mon Aug 3, 5:04am

Mon Aug 3, 4:04am

Mon Aug 3, 3:04am

Mon Aug 3, 2:04am

Mon Aug 3, 1:04am

Mon Aug 3, 12:05am

Sun Aug 2, 11:04pm

Sun Aug 2, 10:04pm

Sun Aug 2, 9:04pm

Sun Aug 2, 8:04pm

Sun Aug 2, 7:04pm

Sun Aug 2, 6:04pm

Sun Aug 2, 5:04pm

Sun Aug 2, 4:05pm

Sun Aug 2, 3:04pm

Sun Aug 2, 2:05pm

Sun Aug 2, 1:04pm

Sun Aug 2, 12:04pm

Sun Aug 2, 11:04am

Sun Aug 2, 10:04am

Sun Aug 2, 9:05am

Sun Aug 2, 8:05am

Sun Aug 2, 7:04am

Sun Aug 2, 6:04am

Sun Aug 2, 5:04am

Sun Aug 2, 4:05am

Sun Aug 2, 3:04am

Sun Aug 2, 2:04am

Sun Aug 2, 1:04am

Sun Aug 2, 12:05am

Sat Aug 1, 11:04pm

Sat Aug 1, 10:04pm

Sat Aug 1, 9:04pm

Sat Aug 1, 8:05pm

Sat Aug 1, 7:04pm

Sat Aug 1, 6:04pm

Sat Aug 1, 5:05pm

Sat Aug 1, 4:05pm

Sat Aug 1, 3:04pm

Sat Aug 1, 2:04pm

Sat Aug 1, 1:04pm

Sat Aug 1, 12:04pm

Sat Aug 1, 11:05am

Sat Aug 1, 10:05am

Sat Aug 1, 9:04am

Sat Aug 1, 8:04am

Sat Aug 1, 7:04am

Sat Aug 1, 6:04am

Sat Aug 1, 5:04am

Sat Aug 1, 4:05am

Sat Aug 1, 3:04am

Sat Aug 1, 2:04am

Sat Aug 1, 1:04am

Sat Aug 1, 12:05am

Fri Jul 31, 11:05pm

Fri Jul 31, 10:04pm

Fri Jul 31, 9:04pm

Fri Jul 31, 8:05pm

Fri Jul 31, 7:05pm

Fri Jul 31, 6:04pm

Fri Jul 31, 5:04pm

Fri Jul 31, 4:05pm

Fri Jul 31, 3:04pm

Fri Jul 31, 2:05pm

Fri Jul 31, 1:04pm

Fri Jul 31, 12:04pm

Fri Jul 31, 11:04am

Fri Jul 31, 10:04am

Fri Jul 31, 9:04am

Fri Jul 31, 8:04am

Fri Jul 31, 7:04am

Fri Jul 31, 6:04am

Fri Jul 31, 5:04am

Fri Jul 31, 4:04am

Fri Jul 31, 2:04am

Fri Jul 31, 1:05am

Fri Jul 31, 12:04am

Thu Jul 30, 11:04pm

Thu Jul 30, 10:04pm

Thu Jul 30, 9:04pm

Thu Jul 30, 8:04pm

Thu Jul 30, 7:05pm

Thu Jul 30, 6:04pm

Thu Jul 30, 5:04pm

Thu Jul 30, 4:05pm

Thu Jul 30, 3:04pm

Thu Jul 30, 2:05pm

Thu Jul 30, 1:04pm

Thu Jul 30, 12:04pm

Thu Jul 30, 11:04am

Thu Jul 30, 10:05am

Thu Jul 30, 9:04am

Thu Jul 30, 8:04am

Thu Jul 30, 7:04am

Thu Jul 30, 6:04am

Thu Jul 30, 5:04am

Thu Jul 30, 4:04am

Thu Jul 30, 3:04am

Thu Jul 30, 2:04am

Thu Jul 30, 1:04am

Thu Jul 30, 12:04am

Wed Jul 29, 11:04pm

Wed Jul 29, 10:04pm

Wed Jul 29, 9:04pm

Wed Jul 29, 8:04pm

Wed Jul 29, 7:05pm

Wed Jul 29, 6:05pm

Wed Jul 29, 5:04pm

Wed Jul 29, 4:04pm

Wed Jul 29, 3:04pm

Wed Jul 29, 2:04pm

Wed Jul 29, 1:05pm

Wed Jul 29, 12:05pm

Wed Jul 29, 11:04am

Wed Jul 29, 10:04am

Wed Jul 29, 9:04am

Wed Jul 29, 8:04am

Wed Jul 29, 7:04am

Wed Jul 29, 6:04am

Wed Jul 29, 5:04am

Wed Jul 29, 4:04am

Wed Jul 29, 3:04am

Wed Jul 29, 2:04am

Wed Jul 29, 1:04am

Wed Jul 29, 12:05am

Tue Jul 28, 11:05pm

Tue Jul 28, 10:05pm

Tue Jul 28, 9:04pm

Tue Jul 28, 8:04pm

Tue Jul 28, 7:04pm

Tue Jul 28, 6:04pm

Tue Jul 28, 5:04pm

Tue Jul 28, 4:05pm

Tue Jul 28, 3:05pm

Tue Jul 28, 2:04pm

Tue Jul 28, 1:05pm

Tue Jul 28, 12:04pm

Tue Jul 28, 11:04am

Tue Jul 28, 10:04am

Tue Jul 28, 9:04am

Tue Jul 28, 8:04am

Tue Jul 28, 7:04am

Tue Jul 28, 6:04am

Tue Jul 28, 5:04am

Tue Jul 28, 4:04am

Tue Jul 28, 3:04am

Tue Jul 28, 2:04am

Tue Jul 28, 1:04am

Tue Jul 28, 12:05am

Mon Jul 27, 11:04pm

Mon Jul 27, 10:05pm

Mon Jul 27, 9:05pm

Mon Jul 27, 8:04pm

Mon Jul 27, 7:04pm

Mon Jul 27, 6:05pm

Mon Jul 27, 5:05pm

Mon Jul 27, 4:04pm

Mon Jul 27, 3:04pm

Mon Jul 27, 2:04pm

Mon Jul 27, 1:04pm

Mon Jul 27, 12:04pm

Mon Jul 27, 11:04am

Mon Jul 27, 10:04am

Mon Jul 27, 9:04am

Mon Jul 27, 8:04am

Meta data:

ID: d9ae54cc-ca91-4701-8c6c-878907b09174
Link: https://api.weather.gov/products/d9ae54cc-ca91-4701-8c6c-878907b09174